Location: Bucharest
(44.4268°N, 26.1025°E)
Time: 20:44:24
(UTC+03:00)

ESTCUBE 1 - Pass Details

Date: 30 June 2022
Orbit: 645 x 657 km, 97.9° (Epoch: 19 August)

Event Time Altitude Azimuth Distance (km) Brightness Sun altitude
Exits shadow 22:29:35 15° 117° (ESE) 1,726 ? -12.1°
Maximum altitude 22:32:23 28° 67° (ENE) 1,225 ? -12.4°
Drops below altitude 10° 22:36:11 10° 9° (N) 2,059 ? -12.8°
Sets 22:38:39 0° 358° (N) 2,976 ? -13.1°
